Time,TemperatureF,DewpointF,PressureIn,WindDirection,WindDirectionDegrees,WindSpeedMPH,WindSpeedGustMPH,Humidity,HourlyPrecipIn,Conditions,Clouds,dailyrainin,SoftwareType,DateUTC
2013-01-10 00:00:00,45.0,32.0,29.94,WNW,282,0.0,3.1,42,0.00,,,-99.99,wx200d/1.3,2013-01-10 08:00:00,
2013-01-10 00:15:00,44.8,32.0,29.94,West,260,0.0,4.9,43,0.00,,,-99.99,wx200d/1.3,2013-01-10 08:15:00,
2013-01-10 00:30:00,44.2,32.0,29.94,West,276,0.0,0.0,44,0.00,,,-99.99,wx200d/1.3,2013-01-10 08:30:00,
2013-01-10 00:45:00,43.9,32.0,29.94,West,277,0.0,0.0,43,0.00,,,-99.99,wx200d/1.3,2013-01-10 08:45:00,
2013-01-10 01:00:00,44.1,32.0,29.94,West,273,0.0,0.0,42,0.00,,,-99.99,wx200d/1.3,2013-01-10 09:00:00,
2013-01-10 01:15:00,43.7,32.0,29.94,West,269,0.0,0.0,42,0.00,,,-99.99,wx200d/1.3,2013-01-10 09:15:00,
2013-01-10 01:30:00,43.5,32.0,29.94,West,263,0.0,2.2,42,0.00,,,-99.99,wx200d/1.3,2013-01-10 09:30:00,
2013-01-10 01:45:00,43.3,32.0,29.94,South,176,0.0,0.0,41,0.00,,,-99.99,wx200d/1.3,2013-01-10 09:45:00,
2013-01-10 02:00:00,43.2,32.0,29.94,West,279,0.0,0.0,40,0.00,,,-99.99,wx200d/1.3,2013-01-10 10:00:00,
2013-01-10 02:15:00,43.2,32.0,29.97,West,278,0.0,0.0,39,0.00,,,-99.99,wx200d/1.3,2013-01-10 10:15:00,
2013-01-10 02:30:00,43.7,32.0,29.97,West,278,0.0,0.0,38,0.00,,,-99.99,wx200d/1.3,2013-01-10 10:30:00,
2013-01-10 02:45:00,44.6,32.0,29.97,West,268,2.7,0.0,36,0.00,,,-99.99,wx200d/1.3,2013-01-10 10:45:00,
2013-01-10 03:00:00,44.1,32.0,29.97,West,266,0.0,0.0,37,0.00,,,-99.99,wx200d/1.3,2013-01-10 11:00:00,
2013-01-10 03:15:00,43.9,32.0,29.97,West,270,0.0,0.0,38,0.00,,,-99.99,wx200d/1.3,2013-01-10 11:15:00,
2013-01-10 03:30:00,44.4,32.0,29.97,West,275,2.2,2.7,38,0.00,,,-99.99,wx200d/1.3,2013-01-10 11:30:00,
2013-01-10 03:45:00,44.8,32.0,29.97,West,268,0.0,2.7,38,0.00,,,-99.99,wx200d/1.3,2013-01-10 11:45:00,
2013-01-10 04:00:00,44.2,32.0,29.94,West,274,0.0,6.7,39,0.00,,,-99.99,wx200d/1.3,2013-01-10 12:00:00,
2013-01-10 04:15:00,43.9,32.0,29.94,ESE,118,0.0,3.1,39,0.00,,,-99.99,wx200d/1.3,2013-01-10 12:15:00,
2013-01-10 04:30:00,43.7,32.0,29.94,West,276,2.7,2.7,39,0.00,,,-99.99,wx200d/1.3,2013-01-10 12:30:00,
2013-01-10 04:45:00,43.5,32.0,29.94,SW,217,0.0,0.0,40,0.00,,,-99.99,wx200d/1.3,2013-01-10 12:45:00,
2013-01-10 05:00:00,43.5,32.0,29.94,WNW,282,0.0,0.0,41,0.00,,,-99.99,wx200d/1.3,2013-01-10 13:00:00,
2013-01-10 05:15:00,43.7,32.0,29.94,WNW,285,0.0,2.2,42,0.00,,,-99.99,wx200d/1.3,2013-01-10 13:15:00,
2013-01-10 05:30:00,43.7,32.0,29.94,West,278,0.0,4.0,41,0.00,,,-99.99,wx200d/1.3,2013-01-10 13:30:00,
2013-01-10 05:45:00,43.5,32.0,29.97,West,276,0.0,0.0,41,0.00,,,-99.99,wx200d/1.3,2013-01-10 13:45:00,
2013-01-10 06:00:00,43.3,32.0,29.97,West,267,2.2,2.7,43,0.00,,,-99.99,wx200d/1.3,2013-01-10 14:00:00,
2013-01-10 06:15:00,43.3,32.0,29.97,West,280,0.0,2.7,41,0.00,,,-99.99,wx200d/1.3,2013-01-10 14:15:00,
2013-01-10 06:30:00,43.3,32.0,29.97,West,275,2.2,2.7,42,0.00,,,-99.99,wx200d/1.3,2013-01-10 14:30:00,
2013-01-10 06:45:00,43.3,32.0,29.97,West,281,0.0,2.7,43,0.00,,,-99.99,wx200d/1.3,2013-01-10 14:45:00,
2013-01-10 07:00:00,43.2,32.0,29.97,WNW,284,2.2,0.0,42,0.00,,,-99.99,wx200d/1.3,2013-01-10 15:00:00,
2013-01-10 07:15:00,43.3,32.0,29.97,West,280,0.0,4.0,40,0.00,,,-99.99,wx200d/1.3,2013-01-10 15:15:00,
2013-01-10 07:30:00,43.5,32.0,29.97,West,266,2.7,8.3,40,0.00,,,-99.99,wx200d/1.3,2013-01-10 15:30:00,
2013-01-10 07:45:00,43.5,32.0,29.97,West,270,3.1,3.1,40,0.00,,,-99.99,wx200d/1.3,2013-01-10 15:45:00,
2013-01-10 08:00:00,43.9,32.0,29.97,West,269,3.1,3.6,39,0.00,,,-99.99,wx200d/1.3,2013-01-10 16:00:00,
2013-01-10 08:15:00,43.9,32.0,29.97,WSW,248,2.7,3.1,39,0.00,,,-99.99,wx200d/1.3,2013-01-10 16:15:00,
2013-01-10 08:30:00,44.2,32.0,29.97,West,281,0.0,3.1,39,0.00,,,-99.99,wx200d/1.3,2013-01-10 16:30:00,
2013-01-10 08:45:00,44.2,32.0,29.97,West,265,2.2,2.2,38,0.00,,,-99.99,wx200d/1.3,2013-01-10 16:45:00,
2013-01-10 09:00:00,45.0,32.0,29.97,West,266,2.2,2.2,36,0.00,,,-99.99,wx200d/1.3,2013-01-10 17:00:00,
2013-01-10 09:15:00,45.3,32.0,29.97,West,275,0.0,0.0,36,0.00,,,-99.99,wx200d/1.3,2013-01-10 17:15:00,
2013-01-10 09:30:00,46.0,32.0,30.00,West,266,4.5,4.5,35,0.00,,,-99.99,wx200d/1.3,2013-01-10 17:30:00,
2013-01-10 09:45:00,46.4,32.0,30.00,WNW,293,0.0,0.0,33,0.00,,,-99.99,wx200d/1.3,2013-01-10 17:45:00,
2013-01-10 10:00:00,46.8,32.0,30.00,West,273,0.0,3.1,31,0.00,,,-99.99,wx200d/1.3,2013-01-10 18:00:00,
2013-01-10 10:15:00,47.3,32.0,30.00,West,279,0.0,0.0,29,0.00,,,-99.99,wx200d/1.3,2013-01-10 18:15:00,
2013-01-10 10:30:00,48.0,32.0,30.00,East,83,2.7,2.7,28,0.00,,,-99.99,wx200d/1.3,2013-01-10 18:30:00,
2013-01-10 10:45:00,48.4,32.0,29.97,West,273,0.0,2.7,27,0.00,,,-99.99,wx200d/1.3,2013-01-10 18:45:00,
2013-01-10 11:00:00,48.4,32.0,30.00,WNW,303,4.5,4.5,28,0.00,,,-99.99,wx200d/1.3,2013-01-10 19:00:00,
2013-01-10 11:15:00,48.9,32.0,29.97,West,259,4.0,4.0,27,0.00,,,-99.99,wx200d/1.3,2013-01-10 19:15:00,
2013-01-10 11:30:00,49.6,32.0,29.97,West,273,2.7,4.0,27,0.00,,,-99.99,wx200d/1.3,2013-01-10 19:30:00,
2013-01-10 11:45:00,49.5,32.0,29.97,South,180,0.0,3.6,27,0.00,,,-99.99,wx200d/1.3,2013-01-10 19:45:00,
2013-01-10 12:00:00,50.2,32.0,29.97,West,265,2.2,2.7,26,0.00,,,-99.99,wx200d/1.3,2013-01-10 20:00:00,
2013-01-10 12:15:00,50.9,32.0,29.97,West,272,3.1,3.1,26,0.00,,,-99.99,wx200d/1.3,2013-01-10 20:15:00,
2013-01-10 12:30:00,50.4,32.0,29.97,WNW,287,3.6,0.0,24,0.00,,,-99.99,wx200d/1.3,2013-01-10 20:30:00,
2013-01-10 12:45:00,49.8,32.0,29.94,WNW,283,2.2,2.2,24,0.00,,,-99.99,wx200d/1.3,2013-01-10 20:45:00,
2013-01-10 13:00:00,49.8,32.0,29.94,West,266,0.0,0.0,26,0.00,,,-99.99,wx200d/1.3,2013-01-10 21:00:00,
2013-01-10 13:15:00,50.5,32.0,29.94,ENE,73,0.0,3.6,24,0.00,,,-99.99,wx200d/1.3,2013-01-10 21:15:00,
2013-01-10 13:30:00,50.5,32.0,29.94,North,357,2.2,5.4,24,0.00,,,-99.99,wx200d/1.3,2013-01-10 21:30:00,
2013-01-10 13:45:00,50.4,32.0,29.94,WNW,286,2.2,2.7,24,0.00,,,-99.99,wx200d/1.3,2013-01-10 21:45:00,
2013-01-10 14:00:00,51.1,32.0,29.94,West,271,3.1,4.0,24,0.00,,,-99.99,wx200d/1.3,2013-01-10 22:00:00,
2013-01-10 14:15:00,50.9,32.0,29.94,WNW,286,4.5,4.5,21,0.00,,,-99.99,wx200d/1.3,2013-01-10 22:15:00,
2013-01-10 14:30:00,51.3,32.0,29.94,West,281,2.2,5.4,21,0.00,,,-99.99,wx200d/1.3,2013-01-10 22:30:00,
2013-01-10 14:45:00,51.6,32.0,29.97,WNW,284,3.6,3.6,24,0.00,,,-99.99,wx200d/1.3,2013-01-10 22:45:00,
2013-01-10 15:00:00,51.4,32.0,29.97,West,265,2.2,2.2,24,0.00,,,-99.99,wx200d/1.3,2013-01-10 23:00:00,
2013-01-10 15:15:00,50.9,32.0,29.97,WNW,290,3.1,3.6,24,0.00,,,-99.99,wx200d/1.3,2013-01-10 23:15:00,
2013-01-10 15:30:00,50.7,32.0,29.97,West,280,3.1,3.6,24,0.00,,,-99.99,wx200d/1.3,2013-01-10 23:30:00,
2013-01-10 15:45:00,50.2,32.0,29.97,SSE,166,2.7,2.7,26,0.00,,,-99.99,wx200d/1.3,2013-01-10 23:45:00,
2013-01-10 16:00:00,49.8,32.0,29.97,West,270,2.2,2.2,27,0.00,,,-99.99,wx200d/1.3,2013-01-11 00:00:00,
2013-01-10 16:15:00,49.5,32.0,29.97,West,275,2.7,2.7,27,0.00,,,-99.99,wx200d/1.3,2013-01-11 00:15:00,
2013-01-10 16:30:00,48.9,32.0,29.97,SSE,150,0.0,3.1,27,0.00,,,-99.99,wx200d/1.3,2013-01-11 00:30:00,
2013-01-10 16:45:00,48.7,32.0,29.97,WSW,251,2.7,3.1,27,0.00,,,-99.99,wx200d/1.3,2013-01-11 00:45:00,
2013-01-10 17:00:00,48.2,32.0,29.97,West,271,2.2,3.6,28,0.00,,,-99.99,wx200d/1.3,2013-01-11 01:00:00,
2013-01-10 17:15:00,47.7,32.0,29.97,West,269,2.2,3.6,29,0.00,,,-99.99,wx200d/1.3,2013-01-11 01:15:00,
2013-01-10 17:30:00,47.3,32.0,29.97,West,271,3.1,3.1,31,0.00,,,-99.99,wx200d/1.3,2013-01-11 01:30:00,
2013-01-10 17:45:00,46.9,32.0,30.00,South,173,2.7,2.7,31,0.00,,,-99.99,wx200d/1.3,2013-01-11 01:45:00,
2013-01-10 18:00:00,46.9,32.0,30.00,WSW,257,3.6,3.6,32,0.00,,,-99.99,wx200d/1.3,2013-01-11 02:00:00,
2013-01-10 18:15:00,46.8,32.0,30.00,WNW,290,0.0,0.0,33,0.00,,,-99.99,wx200d/1.3,2013-01-11 02:15:00,
2013-01-10 18:30:00,46.4,32.0,30.00,West,271,0.0,2.2,36,0.00,,,-99.99,wx200d/1.3,2013-01-11 02:30:00,
2013-01-10 18:45:00,46.0,32.0,30.00,West,265,0.0,2.2,36,0.00,,,-99.99,wx200d/1.3,2013-01-11 02:45:00,
2013-01-10 19:00:00,45.7,32.0,30.00,West,271,2.2,0.0,37,0.00,,,-99.99,wx200d/1.3,2013-01-11 03:00:00,
2013-01-10 19:15:00,45.3,32.0,30.00,West,268,0.0,0.0,37,0.00,,,-99.99,wx200d/1.3,2013-01-11 03:15:00,
2013-01-10 19:30:00,44.8,32.0,30.00,WSW,240,0.0,0.0,37,0.00,,,-99.99,wx200d/1.3,2013-01-11 03:30:00,
2013-01-10 19:45:00,45.0,32.0,30.00,West,270,2.7,3.6,32,0.00,,,-99.99,wx200d/1.3,2013-01-11 03:45:00,
2013-01-10 20:00:00,45.0,32.0,30.00,West,280,0.0,0.0,31,0.00,,,-99.99,wx200d/1.3,2013-01-11 04:00:00,
2013-01-10 20:15:00,44.8,32.0,30.03,West,262,0.0,0.0,30,0.00,,,-99.99,wx200d/1.3,2013-01-11 04:15:00,
2013-01-10 20:30:00,45.0,32.0,30.03,West,277,3.1,4.0,30,0.00,,,-99.99,wx200d/1.3,2013-01-11 04:30:00,
2013-01-10 20:45:00,45.1,32.0,30.03,West,271,2.2,4.0,30,0.00,,,-99.99,wx200d/1.3,2013-01-11 04:45:00,
2013-01-10 21:15:00,44.1,32.0,30.03,SW,221,0.0,0.0,31,0.00,,,-99.99,wx200d/1.3,2013-01-11 05:15:00,
2013-01-10 21:30:00,43.7,32.0,30.03,SW,230,0.0,0.0,33,0.00,,,-99.99,wx200d/1.3,2013-01-11 05:30:00,
2013-01-10 21:45:00,43.5,32.0,30.03,West,265,0.0,0.0,34,0.00,,,-99.99,wx200d/1.3,2013-01-11 05:45:00,
2013-01-10 22:00:00,44.1,32.0,30.03,WNW,287,0.0,2.2,34,0.00,,,-99.99,wx200d/1.3,2013-01-11 06:00:00,
2013-01-10 22:15:00,44.1,32.0,30.03,West,267,0.0,0.0,34,0.00,,,-99.99,wx200d/1.3,2013-01-11 06:15:00,
2013-01-10 22:30:00,43.5,32.0,30.06,West,260,0.0,0.0,35,0.00,,,-99.99,wx200d/1.3,2013-01-11 06:30:00,
2013-01-10 22:45:00,43.3,32.0,30.06,West,271,2.7,2.7,36,0.00,,,-99.99,wx200d/1.3,2013-01-11 06:45:00,
2013-01-10 23:00:00,42.8,32.0,30.06,West,269,2.2,2.7,35,0.00,,,-99.99,wx200d/1.3,2013-01-11 07:00:00,
2013-01-10 23:15:00,42.4,32.0,30.06,West,274,0.0,0.0,34,0.00,,,-99.99,wx200d/1.3,2013-01-11 07:15:00,
2013-01-10 23:30:00,41.9,32.0,30.06,West,273,0.0,0.0,34,0.00,,,-99.99,wx200d/1.3,2013-01-11 07:30:00,
2013-01-10 23:45:00,41.9,32.0,30.06,West,267,0.0,0.0,35,0.00,,,-99.99,wx200d/1.3,2013-01-11 07:45:00,